FW2297 Weather Reports


Display with metric or nautical units.
time (UTC)temp
F
wind
direction
speed
MPH
gust
MPH
rain 1hr
in
rain 24hr
in
rain mn
in
humidity
%
barometer
mb
20260509061052 33 0 0.0 0.0 0.00 0.00 0.00 83 1013.1
20260509060553 33 0 0.0 0.0 0.00 0.00 0.00 82 1013.0
20260509060053 34 0 0.0 0.0 0.00 0.00 0.00 81 1013.0
20260509055555 34 0 0.0 0.0 0.00 0.00 0.00 81 1012.9
20260509055051 34 0 0.0 0.0 0.00 0.00 0.00 80 1012.8
20260509054559 34 0 0.0 0.0 0.00 0.00 0.00 80 1013.0
20260509054051 34 0 0.0 0.0 0.00 0.00 0.00 79 1012.9
20260509053552 35 0 0.0 0.0 0.00 0.00 0.00 78 1012.8
20260509053100 35 0 0.0 0.0 0.00 0.00 0.00 78 1012.9
20260509052551 35 0 0.0 0.0 0.00 0.00 0.00 78 1012.8
20260509052055 35 0 0.0 0.0 0.00 0.00 0.00 78 1012.7
20260509051554 35 0 0.0 0.0 0.00 0.00 0.00 77 1012.7
20260509051051 36 0 0.0 0.0 0.00 0.00 0.00 77 1012.6
20260509050548 36 0 0.0 0.0 0.00 0.00 0.00 77 1012.6
20260509050056 36 0 0.0 0.0 0.00 0.00 0.00 77 1012.7
20260509045552 36 0 0.0 0.0 0.00 0.00 0.00 76 1012.6
20260509045052 36 0 0.0 0.0 0.00 0.00 0.00 75 1012.6
20260509044556 37 0 0.0 0.0 0.00 0.00 0.00 76 1012.6
20260509044052 37 0 0.0 0.0 0.00 0.00 0.00 74 1012.6
20260509043554 37 0 0.0 0.0 0.00 0.00 0.00 74 1012.6
20260509043054 37 0 0.0 0.0 0.00 0.00 0.00 74 1012.5
20260509042551 38 0 0.0 0.0 0.00 0.00 0.00 73 1012.4
20260509042051 38 0 0.0 0.0 0.00 0.00 0.00 73 1012.4
20260509041550 39 0 0.0 0.0 0.00 0.00 0.00 73 1012.4
20260509041051 39 0 0.0 0.0 0.00 0.00 0.00 71 1012.6
20260509040551 39 0 0.0 0.0 0.00 0.00 0.00 68 1012.5
20260509040055 40 0 0.0 0.0 0.00 0.00 0.00 68 1012.5
20260509035551 40 0 0.0 0.0 0.00 0.00 0.00 68 1012.5
20260509035050 40 0 0.0 0.0 0.00 0.00 0.00 67 1012.3
20260509034600 40 0 0.0 0.0 0.00 0.00 0.00 68 1012.2
20260509034053 40 0 0.0 0.0 0.00 0.00 0.00 68 1012.1
20260509033552 40 0 0.0 0.0 0.00 0.00 0.00 69 1012.0
20260509033055 40 0 0.0 0.0 0.00 0.00 0.00 68 1011.9
20260509032551 40 0 0.0 0.0 0.00 0.00 0.00 68 1011.9
20260509032051 41 0 0.0 4.0 0.00 0.00 0.00 69 1011.9
20260509031554 41 0 0.0 4.0 0.00 0.00 0.00 68 1011.8
20260509031052 41 0 0.0 0.0 0.00 0.00 0.00 66 1011.8
20260509030552 42 0 0.0 0.0 0.00 0.00 0.00 66 1011.8
20260509030054 42 0 0.0 0.0 0.00 0.00 0.00 65 1011.7
20260509025552 42 0 0.0 0.0 0.00 0.00 0.00 63 1011.8
20260509025055 42 0 0.0 0.0 0.00 0.00 0.00 63 1011.6
20260509024553 43 0 0.0 0.0 0.00 0.00 0.00 63 1011.7
20260509024052 43 0 0.0 0.0 0.00 0.00 0.00 63 1011.7
20260509023551 44 0 0.0 0.0 0.00 0.00 0.00 61 1011.7
20260509023049 44 0 0.0 0.0 0.00 0.00 0.00 60 1011.5
20260509022552 44 0 0.0 0.0 0.00 0.00 0.00 60 1011.4
20260509022052 44 0 0.0 0.0 0.00 0.00 0.00 61 1011.5
20260509021552 44 0 0.0 0.0 0.00 0.00 0.00 61 1011.3
20260509021051 44 0 0.0 0.0 0.00 0.00 0.00 58 1011.4
20260509020551 44 0 0.0 0.0 0.00 0.00 0.00 58 1011.2
20260509020050 44 0 0.0 0.0 0.00 0.00 0.00 57 1011.2
20260509015552 44 0 0.0 0.0 0.00 0.00 0.00 59 1011.3
20260509015052 44 0 0.0 0.0 0.00 0.00 0.00 59 1011.1
20260509014552 44 0 0.0 0.0 0.00 0.00 0.00 56 1011.1
20260509014051 44 0 0.0 0.0 0.00 0.00 0.00 54 1011.1
20260509013551 44 0 0.0 0.0 0.00 0.00 0.00 58 1011.0
20260509013057 44 0 0.0 0.0 0.00 0.00 0.00 60 1010.8
20260509012554 44 0 0.0 0.0 0.00 0.00 0.00 58 1010.8
20260509012050 44 0 0.0 0.0 0.00 0.00 0.00 58 1010.8
20260509011555 44 0 0.0 0.0 0.00 0.00 0.00 55 1010.7
20260509011047 44 0 0.0 0.0 0.00 0.00 0.00 58 1010.6
20260509010548 44 0 0.0 0.0 0.00 0.00 0.00 54 1010.4
20260509010100 44 0 0.0 0.0 0.00 0.00 0.00 54 1010.3
20260509005552 45 0 0.0 0.0 0.00 0.00 0.00 53 1010.3
20260509005051 45 0 0.0 0.0 0.00 0.00 0.00 56 1010.3
20260509004553 45 0 0.0 0.0 0.00 0.00 0.00 54 1010.1
20260509004053 45 0 0.0 0.0 0.00 0.00 0.00 54 1010.1
20260509003552 46 0 0.0 0.0 0.00 0.00 0.00 51 1010.0
20260509003103 46 0 0.0 0.0 0.00 0.00 0.00 52 1010.0
20260509002551 46 0 0.0 0.0 0.00 0.00 0.00 51 1009.9
20260509002051 47 0 0.0 0.0 0.00 0.00 0.00 51 1009.8
20260509001555 47 0 0.0 0.0 0.00 0.00 0.00 49 1009.6
20260509001050 47 0 0.0 0.0 0.00 0.00 0.00 47 1009.7
20260509000548 48 0 0.0 0.0 0.00 0.00 0.00 45 1009.6
20260509000059 49 0 0.0 0.0 0.00 0.00 0.00 44 1009.7
20260508235551 49 0 0.0 0.0 0.00 0.00 0.00 42 1009.6
20260508235051 49 0 0.0 0.0 0.00 0.00 0.00 42 1009.4
20260508234559 49 0 0.0 0.0 0.00 0.00 0.00 41 1009.4
20260508234050 50 0 0.0 0.0 0.00 0.00 0.00 42 1009.3
20260508233551 50 0 0.0 0.0 0.00 0.00 0.00 41 1009.4
20260508233106 50 0 0.0 0.0 0.00 0.00 0.00 40 1009.3
20260508232551 51 0 0.0 0.0 0.00 0.00 0.00 40 1009.3
20260508232051 51 0 0.0 0.0 0.00 0.00 0.00 39 1009.3
20260508231633 51 0 0.0 0.0 0.00 0.00 0.00 38 1009.2
20260508231052 52 0 0.0 5.0 0.00 0.00 0.00 38 1009.1
20260508230551 52 0 0.0 5.0 0.00 0.00 0.00 37 1009.1
20260508230101 52 0 0.0 4.0 0.00 0.00 0.00 37 1009.0
20260508225551 53 0 0.0 7.0 0.00 0.00 0.00 36 1009.1
20260508225052 53 0 0.0 7.0 0.00 0.00 0.00 37 1009.0
20260508224600 53 0 0.0 4.0 0.00 0.00 0.00 35 1009.1
20260508224048 54 0 0.0 4.0 0.00 0.00 0.00 35 1009.0
20260508223548 53 0 0.0 2.0 0.00 0.00 0.00 36 1008.8
20260508223050 53 0 0.0 7.0 0.00 0.00 0.00 36 1008.8
20260508222550 53 0 0.0 10.0 0.00 0.00 0.00 35 1008.8
20260508222050 53 0 0.0 10.0 0.00 0.00 0.00 36 1008.8
20260508221552 52 0 0.0 10.0 0.00 0.00 0.00 37 1008.8
20260508221052 52 255 1.0 10.0 0.00 0.00 0.00 38 1008.8
20260508220552 51 0 1.0 11.0 0.00 0.00 0.00 37 1008.8
20260508215551 52 0 0.0 7.0 0.00 0.00 0.00 37 1008.8
20260508215048 52 0 0.0 5.0 0.00 0.00 0.00 37 1008.8
20260508214621 52 0 0.0 6.0 0.00 0.00 0.00 37 1008.7
20260508214052 52 324 0.0 6.0 0.00 0.00 0.00 37 1008.7
20260508213552 52 294 0.0 5.0 0.00 0.00 0.00 37 1008.7
20260508213053 52 0 0.0 8.0 0.00 0.00 0.00 38 1008.7
20260508212548 52 0 1.0 8.0 0.00 0.00 0.00 37 1008.6
20260508212053 52 0 0.0 6.0 0.00 0.00 0.00 37 1008.7
20260508211552 52 0 0.0 9.0 0.00 0.00 0.00 37 1008.6
20260508211051 52 0 0.0 12.0 0.00 0.00 0.00 36 1008.5
20260508210551 53 0 3.0 12.0 0.00 0.00 0.00 36 1008.5
20260508210056 53 269 0.0 11.0 0.00 0.00 0.00 36 1008.4
20260508205551 53 0 0.0 11.0 0.00 0.00 0.00 38 1008.3
20260508205051 53 0 2.0 11.0 0.00 0.00 0.00 37 1008.2
20260508204553 53 0 3.0 11.0 0.00 0.00 0.00 36 1008.3
20260508204052 53 302 0.0 7.0 0.00 0.00 0.00 35 1008.3
20260508203551 54 0 0.0 8.0 0.00 0.00 0.00 34 1008.2
20260508203110 54 248 0.0 16.0 0.00 0.00 0.00 35 1008.1
20260508202548 53 0 1.0 16.0 0.00 0.00 0.00 37 1008.2
20260508202051 53 0 4.0 16.0 0.00 0.00 0.00 37 1008.3
20260508201552 53 0 1.0 14.0 0.00 0.00 0.00 35 1008.1
20260508201051 54 0 0.0 14.0 0.00 0.00 0.00 35 1008.1
20260508200548 55 277 3.0 13.0 0.00 0.00 0.00 34 1008.2
20260508200053 55 322 0.0 13.0 0.00 0.00 0.00 36 1008.3
20260508195551 54 292 0.0 9.0 0.00 0.00 0.00 35 1008.3
20260508195051 53 0 3.0 15.0 0.00 0.00 0.00 37 1008.3
20260508194554 53 0 5.0 15.0 0.00 0.00 0.00 37 1008.2
20260508194051 53 264 3.0 15.0 0.00 0.00 0.00 36 1008.2
20260508193551 53 1 8.0 15.0 0.00 0.00 0.00 35 1008.2
20260508193114 53 359 3.0 15.0 0.00 0.00 0.00 35 1008.3
20260508192550 53 0 6.0 15.0 0.00 0.00 0.00 36 1008.1
20260508192049 53 293 5.0 14.0 0.00 0.00 0.00 37 1008.2
20260508191559 53 352 2.0 14.0 0.00 0.00 0.00 37 1008.1
20260508191051 53 340 1.0 12.0 0.00 0.00 0.00 37 1008.2
20260508190548 54 282 3.0 11.0 0.00 0.00 0.00 37 1008.1
20260508190052 54 338 3.0 11.0 0.00 0.00 0.00 38 1008.1
20260508185548 54 0 1.0 11.0 0.00 0.00 0.00 37 1008.2
20260508185052 54 0 0.0 12.0 0.00 0.00 0.00 38 1008.3
20260508184556 54 0 1.0 12.0 0.00 0.00 0.00 37 1008.3
20260508184050 53 0 2.0 13.0 0.00 0.00 0.00 40 1008.1
20260508183551 52 283 4.0 13.0 0.00 0.00 0.00 40 1008.2
20260508183051 51 262 1.0 11.0 0.00 0.00 0.00 41 1008.4
20260508182552 51 300 0.0 8.0 0.00 0.00 0.00 41 1008.4
20260508182047 51 300 0.0 6.0 0.00 0.00 0.00 39 1008.3
20260508181556 51 0 0.0 13.0 0.00 0.00 0.00 41 1008.4
20260508181051 50 278 3.0 13.0 0.00 0.00 0.00 44 1008.5
20260508180550 50 262 2.0 11.0 0.00 0.00 0.00 44 1008.5
20260508175547 49 0 1.0 10.0 0.00 0.00 0.00 46 1008.6
20260508175049 49 0 1.0 10.0 0.00 0.00 0.00 46 1008.5
20260508174604 49 0 5.0 10.0 0.00 0.00 0.00 46 1008.6
20260508174048 50 0 0.0 13.0 0.00 0.00 0.00 47 1008.4
20260508173551 49 0 0.0 13.0 0.00 0.00 0.00 47 1008.7
20260508173051 49 274 2.0 13.0 0.00 0.00 0.00 46 1008.7
20260508172551 49 0 4.0 14.0 0.00 0.00 0.00 46 1008.7
20260508172048 49 0 3.0 14.0 0.00 0.00 0.00 48 1008.5
20260508171553 49 347 3.0 18.0 0.00 0.00 0.00 48 1008.5
20260508171053 49 0 1.0 18.0 0.00 0.00 0.00 48 1008.4
20260508170550 50 307 3.0 13.0 0.00 0.00 0.00 47 1008.5
20260508170054 50 0 3.0 13.0 0.00 0.00 0.00 47 1008.3
20260508165550 50 0 1.0 12.0 0.00 0.00 0.00 47 1008.3
20260508165053 50 0 0.0 14.0 0.00 0.00 0.00 46 1008.3
20260508164558 51 288 1.0 14.0 0.00 0.00 0.00 46 1008.3
20260508164051 51 332 2.0 10.0 0.00 0.00 0.00 44 1008.2
20260508163551 51 0 2.0 10.0 0.00 0.00 0.00 43 1008.1
20260508163054 51 271 2.0 11.0 0.00 0.00 0.00 43 1008.2
20260508162551 52 300 2.0 14.0 0.00 0.00 0.00 42 1008.0
20260508162051 53 256 0.0 14.0 0.00 0.00 0.00 43 1008.1
20260508161553 52 233 1.0 15.0 0.00 0.00 0.00 43 1008.0
20260508161051 52 319 4.0 15.0 0.00 0.00 0.00 45 1007.8
20260508160551 52 0 0.0 9.0 0.00 0.00 0.00 44 1008.0
20260508160053 51 0 0.0 9.0 0.00 0.00 0.00 48 1008.0
20260508155550 50 0 0.0 9.0 0.00 0.00 0.00 47 1008.0
20260508155050 50 0 0.0 14.0 0.00 0.00 0.00 46 1008.1
20260508154554 50 0 1.0 14.0 0.00 0.00 0.00 44 1008.0
20260508154050 51 0 2.0 13.0 0.00 0.00 0.00 41 1007.9
20260508153551 51 0 1.0 13.0 0.00 0.00 0.00 39 1008.0
20260508153056 51 247 0.0 9.0 0.00 0.00 0.00 40 1008.0
20260508152550 52 0 0.0 4.0 0.00 0.00 0.00 40 1007.8
20260508152048 52 0 0.0 2.0 0.00 0.00 0.00 40 1007.8
20260508151556 51 0 0.0 13.0 0.00 0.00 0.00 39 1007.8
20260508151051 51 0 1.0 13.0 0.00 0.00 0.00 40 1007.9
20260508150550 51 0 0.0 7.0 0.00 0.00 0.00 40 1007.9
20260508150054 51 0 0.0 11.0 0.00 0.00 0.00 40 1007.7
20260508145551 51 0 1.0 11.0 0.00 0.00 0.00 39 1007.9
20260508145050 51 0 2.0 10.0 0.00 0.00 0.00 39 1008.1
20260508144555 52 0 0.0 10.0 0.00 0.00 0.00 39 1008.0
20260508144050 52 0 1.0 10.0 0.00 0.00 0.00 40 1008.0
20260508143552 52 0 1.0 10.0 0.00 0.00 0.00 41 1008.0
20260508143104 51 0 0.0 5.0 0.00 0.00 0.00 42 1008.0
20260508142553 51 0 0.0 1.0 0.00 0.00 0.00 43 1008.2
20260508142051 51 0 0.0 1.0 0.00 0.00 0.00 42 1008.2
20260508141554 50 0 0.0 8.0 0.00 0.00 0.00 43 1008.4
20260508141050 50 0 0.0 8.0 0.00 0.00 0.00 45 1008.3
20260508140551 50 0 0.0 8.0 0.00 0.00 0.00 45 1008.3
20260508140104 51 292 0.0 9.0 0.00 0.00 0.00 45 1008.4
20260508135551 52 0 0.0 9.0 0.00 0.00 0.00 43 1008.3
20260508135051 53 0 0.0 7.0 0.00 0.00 0.00 44 1008.3
20260508134558 51 0 0.0 8.0 0.00 0.00 0.00 47 1008.3
20260508134050 50 0 0.0 8.0 0.00 0.00 0.00 47 1008.5
20260508133551 50 0 0.0 8.0 0.00 0.00 0.00 48 1008.5
20260508133055 49 0 0.0 8.0 0.00 0.00 0.00 48 1008.6
20260508132551 49 0 1.0 8.0 0.00 0.00 0.00 49 1008.6
20260508132052 49 0 0.0 7.0 0.00 0.00 0.00 50 1008.6
20260508131553 49 0 0.0 7.0 0.00 0.00 0.00 50 1008.7
20260508131051 49 0 0.0 7.0 0.00 0.00 0.00 52 1008.6
20260508130552 48 0 0.0 7.0 0.00 0.00 0.00 53 1008.6
20260508130053 48 0 0.0 7.0 0.00 0.00 0.00 55 1008.6
20260508125552 48 0 0.0 4.0 0.00 0.00 0.00 56 1008.6
20260508125052 47 0 0.0 8.0 0.00 0.00 0.00 58 1008.7
20260508124554 46 0 0.0 8.0 0.00 0.00 0.00 58 1008.7
20260508124051 46 0 0.0 1.0 0.00 0.00 0.00 60 1008.7
20260508123551 46 0 0.0 3.0 0.00 0.00 0.00 61 1008.7
20260508123054 45 0 0.0 3.0 0.00 0.00 0.00 66 1008.7
20260508122550 44 0 0.0 1.0 0.00 0.00 0.00 65 1008.7
20260508122050 43 0 0.0 0.0 0.00 0.00 0.00 68 1008.7
20260508121552 42 0 0.0 0.0 0.00 0.00 0.00 70 1008.6
20260508121053 41 0 0.0 0.0 0.00 0.00 0.00 71 1008.7
20260508120551 40 0 0.0 0.0 0.00 0.00 0.00 71 1008.8
20260508120056 40 0 0.0 0.0 0.00 0.00 0.00 74 1008.6
20260508115552 39 0 0.0 0.0 0.00 0.00 0.00 73 1008.7
20260508115051 39 0 0.0 0.0 0.00 0.00 0.00 74 1008.7
20260508114605 38 0 0.0 0.0 0.00 0.00 0.00 76 1008.7
20260508114052 37 0 0.0 0.0 0.00 0.00 0.00 78 1008.7
20260508113551 37 0 0.0 0.0 0.00 0.00 0.00 80 1008.7
20260508113104 36 0 0.0 0.0 0.00 0.00 0.00 83 1008.6
20260508112551 35 0 0.0 0.0 0.00 0.00 0.00 85 1008.6
20260508112051 35 0 0.0 0.0 0.00 0.00 0.00 88 1008.8
20260508111614 34 0 0.0 0.0 0.00 0.00 0.00 90 1008.6
20260508111053 33 0 0.0 0.0 0.00 0.00 0.00 91 1008.6
20260508110552 32 0 0.0 0.0 0.00 0.00 0.00 91 1008.5
20260508110057 32 0 0.0 0.0 0.00 0.00 0.00 92 1008.6
20260508105555 31 0 0.0 0.0 0.00 0.00 0.00 92 1008.6
20260508105054 30 0 0.0 0.0 0.00 0.00 0.00 91 1008.5
20260508104556 30 0 0.0 0.0 0.00 0.00 0.00 90 1008.5
20260508104052 30 0 0.0 0.0 0.00 0.00 0.00 90 1008.4
20260508103553 30 0 0.0 0.0 0.00 0.00 0.00 90 1008.3
20260508103052 29 0 0.0 0.0 0.00 0.00 0.00 90 1008.3
20260508102551 29 0 0.0 0.0 0.00 0.00 0.00 90 1008.2
20260508102051 29 0 0.0 0.0 0.00 0.00 0.00 90 1008.2
20260508101555 29 0 0.0 0.0 0.00 0.00 0.00 90 1008.0
20260508101052 29 0 0.0 0.0 0.00 0.00 0.00 90 1008.0
20260508100555 29 0 0.0 0.0 0.00 0.00 0.00 90 1008.0
20260508100052 29 0 0.0 0.0 0.00 0.00 0.00 90 1007.9
20260508095551 29 0 0.0 0.0 0.00 0.00 0.00 90 1007.9
20260508095052 29 0 0.0 0.0 0.00 0.00 0.00 90 1007.7
20260508094559 29 0 0.0 0.0 0.00 0.00 0.00 89 1007.9
20260508094052 29 0 0.0 0.0 0.00 0.00 0.00 89 1007.7
20260508093552 29 0 0.0 0.0 0.00 0.00 0.00 89 1007.6
20260508093059 29 0 0.0 0.0 0.00 0.00 0.00 89 1007.6
20260508092553 30 0 0.0 0.0 0.00 0.00 0.00 89 1007.6
20260508092051 30 0 0.0 0.0 0.00 0.00 0.00 89 1007.5
20260508091603 30 0 0.0 0.0 0.00 0.00 0.00 89 1007.5
20260508091051 30 0 0.0 0.0 0.00 0.00 0.00 89 1007.5
20260508090551 30 0 0.0 0.0 0.00 0.00 0.00 89 1007.4
20260508090057 30 0 0.0 0.0 0.00 0.00 0.00 88 1007.3
20260508085551 30 0 0.0 0.0 0.00 0.00 0.00 88 1007.5
20260508085050 30 0 0.0 0.0 0.00 0.00 0.00 88 1007.4
20260508084551 30 0 0.0 0.0 0.00 0.00 0.00 88 1007.3
20260508084052 30 0 0.0 0.0 0.00 0.00 0.00 88 1007.4
20260508083550 30 0 0.0 0.0 0.00 0.00 0.00 87 1007.2
20260508083107 30 0 0.0 0.0 0.00 0.00 0.00 86 1007.3
20260508082552 31 0 0.0 0.0 0.00 0.00 0.00 87 1007.1
20260508082052 31 0 0.0 0.0 0.00 0.00 0.00 86 1007.2
20260508081601 31 0 0.0 0.0 0.00 0.00 0.00 86 1007.1
20260508081052 31 0 0.0 0.0 0.00 0.00 0.00 86 1006.9
20260508080552 31 0 0.0 0.0 0.00 0.00 0.00 86 1007.1
20260508080104 31 0 0.0 0.0 0.00 0.00 0.00 86 1006.9
20260508075552 31 0 0.0 0.0 0.00 0.00 0.00 86 1007.0
20260508075053 31 0 0.0 0.0 0.00 0.00 0.00 86 1006.9
20260508074603 31 0 0.0 0.0 0.00 0.00 0.00 86 1007.0
20260508074052 31 0 0.0 0.0 0.00 0.00 0.00 85 1006.9
20260508073552 31 0 0.0 0.0 0.00 0.00 0.00 85 1006.8
20260508073057 31 0 0.0 0.0 0.00 0.00 0.00 85 1006.8
20260508072550 31 0 0.0 0.0 0.00 0.00 0.00 85 1006.9
20260508072050 32 0 0.0 0.0 0.00 0.00 0.00 85 1006.9
20260508071553 32 0 0.0 0.0 0.00 0.00 0.00 85 1007.1
20260508071052 32 0 0.0 0.0 0.00 0.00 0.00 84 1007.0
20260508070552 32 0 0.0 0.0 0.00 0.00 0.00 84 1007.1
20260508070055 32 0 0.0 0.0 0.00 0.00 0.00 84 1007.0
20260508065551 32 0 0.0 0.0 0.00 0.01 0.00 82 1006.9
20260508065048 32 0 0.0 0.0 0.00 0.01 0.00 82 1007.1
20260508064555 32 0 0.0 0.0 0.00 0.01 0.00 82 1006.8
20260508064055 32 0 0.0 0.0 0.00 0.01 0.00 81 1006.9
20260508063550 33 0 0.0 0.0 0.00 0.01 0.00 81 1006.9
20260508063051 33 0 0.0 0.0 0.00 0.01 0.00 81 1007.0
20260508062550 33 0 0.0 0.0 0.00 0.01 0.00 81 1007.0
20260508062052 33 0 0.0 0.0 0.00 0.01 0.00 80 1007.1
20260508061601 33 0 0.0 0.0 0.00 0.01 0.00 80 1007.1